Regional Weather Roundup
Issued by NWS Charleston, SC

Current Version | Previous Version | Graphics & Text | Print | Product List | Glossary On
Versions: 1 2 3 4 5 6 7 8 9 10 11 12 13 14 15 16 17 18 19 20 21 22 23 24 25 26 27 28 29 30 31 32 33 34 35 36 37 38 39 40 41 42 43 44 45 46 47 48 49 50
000
ASUS42 KCHS 262227
RWRCHS

REGIONAL WEATHER ROUNDUP
NATIONAL WEATHER SERVICE CHARLESTON SC
600 PM EDT MON JUN 26 2017

NOTE: "FAIR" INDICATES FEW OR NO CLOUDS BELOW 12,000 FEET WITH NO
SIGNIFICANT WEATHER AND/OR OBSTRUCTIONS TO VISIBILITY.

NOT ALL STATIONS ARE QUALITY CONTROLLED. USE DATA WITH CAUTION...
ESPECIALLY DEWPOINT OBSERVATIONS.

SCZ027-030-031-034>040-042>050-262300-
...SOUTHEAST SOUTH CAROLINA...

CITY           SKY/WX    TMP DP  RH WIND       PRES   REMARKS
N CHARLESTON   CLOUDY    85  64  49 NE6       30.02F
WATERFRONT PRK   N/A     83  68  60 NE6       30.02S
JOHNS ISLAND   FAIR      82  70  65 E10       30.02F
PINOPOLIS        N/A     81  64  57 VRB3      29.98F
MONCKS CORNER  FAIR      82  61  47 E3        30.03F
SUMMERVILLE    FAIR      82  63  51 N6        30.04F
BEAUFORT MCAS  PTSUNNY   84  73  69 E5        30.02F HX  90
BEAUFORT ARPT  FAIR      82  72  69 E8        30.02S
HILTON HEAD IS MOSUNNY   82  73  74 E9        30.03F
WALTERBORO     PTCLDY    82  64  54 NE6       30.04F
ALLENDALE      FAIR      82  64  54 SE6       30.03S

...SOUTHERN MIDLANDS AND PEE DEE...

CITY           SKY/WX    TMP DP  RH WIND       PRES   REMARKS
GEORGETOWN     FAIR      82  57  42 E5        30.05R
KINGSTREE      FAIR      82  57  42 SE3       30.03S
ORANGEBURG     SUNNY     85  57  38 VRB3      30.04F
BARNWELL       FAIR      84  61  45 SE5       30.04F
AIKEN          FAIR      82  55  39 N6        30.08S
MANNING        FAIR      82  61  47 NW5       30.03F
COLUMBIA       MOSUNNY   87  53  31 VRB3      30.02F
SUMTER         SUNNY     86  55  34 SE6       30.01F
FLORENCE       SUNNY     86  53  32 N7        30.03F
MYRTLE BEACH   NOT AVBL
N MYRTLE BEACH SUNNY     84  58  40 CALM      30.02F

$$

GAZ063-065-086>088-099>101-113>116-118-119-134>141-150-262300-
...SOUTHEAST GEORGIA...

CITY           SKY/WX    TMP DP  RH WIND       PRES   REMARKS
SAVANNAH ARPT  LGT RAIN  83  70  64 E12       30.03S
HUNTER AAF     PTSUNNY   80  75  85 E7        30.00S
FORT STEWART   LGT RAIN  77  73  88 SE5       30.01S
STATESBORO     SUNNY     84  68  58 NE3       30.03F
SYLVANIA       CLEAR     84  70  63 E5        30.05S
CLAXTON        FAIR      83  69  62 N9        30.02F

...CSRA...CENTRAL AND FAR SOUTHEAST GEORGIA...

CITY           SKY/WX    TMP DP  RH WIND       PRES   REMARKS
THOMSON        SUNNY     84  57  40 NE7       30.10F
AUGUSTA-BUSH   SUNNY     89  57  33 NE7       30.02F
AUGUSTA-DANIEL MOSUNNY   87  54  32 VRB3      30.04F
SWAINSBORO     FAIR      84  61  45 NE8       30.04F
VIDALIA        SUNNY     86  70  58 NE9       30.03S HX  90
EASTMAN        FAIR      87  51  28 NE9       30.05S
HAZLEHURST     FAIR      88  70  55 N9        30.00S HX  92
ALMA           CLOUDY    81  70  69 E8        30.00S
WAYCROSS       PTSUNNY   82  73  72 E8        30.01R
JESUP          LGT RAIN  73  68  83 CALM      30.02F
BAXLEY         CLOUDY    82  77  83 SE6       30.00F HX  91
BRUNSWICK      CLOUDY    79  77  94 NE6       30.02F
SAINT SIMONS   CLOUDY    78  75  90 NE6       30.02S

$$

SCZ027-028-034-036>038-045-046-048>050-GAZ119-141-262300-
...LAKE AND SUPPLEMENTAL COASTAL OBSERVATIONS...

STATION/POSITION TIME  TEMP    WIND        PRES    WAVE   SWELL
                       AIR SEA DIR/SP/G            HT/PER HT/PER/DIR
                 (UTC) (F)     (DEG/KT/KT) (MB)    (FT/S) (FT/S/D)
WINYAH BAY       2145   81      70/  8     1017.0S
LAKE MURRAY      2120   84     200/  6/  7 1016.3F
ACE BASIN NERRS  2145   84      30/  1     1017.0S
FORT PULASKI     2200   80 84  110/ 13/ 16 1017.1
SAPELO ISLAND    2200   76      50/ 10     1017.0

$$

ANZ835-935-AMZ111-154-330-350-352-354-370-450-454-472-262300-
...C-MAN AND BUOY OBSERVATIONS...

STATION/POSITION TIME  TEMP    WIND        PRES    WAVE   SWELL
                       AIR SEA DIR/SP/G            HT/PER HT/PER/DIR
                 (UTC) (F)     (DEG/KT/KT) (MB)    (FT/S) (FT/S/D)
BUOY 41004       2210   78 81   40/ 12/ 14 1016.1
BUOY 41008       2150   79 82   90/  8/  8 1016.5F   2/ 8   2/130/ 8
FOLLY BEACH CMAN 2200   81      70/ 13/ 15 1017.4F
CAPERS NEARSHORE 2208   85 83   80/ 12/ 16 1016.7F
FRIPP NEARSHORE  2208   81 83   80/ 16/ 19 1016.3F


STATION/POSITION TIME  TEMP    WIND        PRES    WAVE   SWELL
                       AIR SEA DIR/SP/G            HT/PER HT/PER/DIR
                 (UTC) (F)     (DEG/KT/KT) (MB)    (FT/S) (FT/S/D)
5E ST. MARYS GA  2200      81                N/A     2/ 8
FRYING PAN BUOY  2210   78 81   30/ 10/ 12 1016.1
BUOY 41025       2150   79 81  320/  2/  4 1016.7F   2/ 8   2/140/ 8
CAPE LOOKOUT NC  2200   78     110/  6/  7 1016.1F
BUOY 41002       2150   78 80   30/  4/  4 1017.3F   3/ 5   3/260/ 5
BUOY 41010       2210   84 84  210/  2/  4 1016.0
ST AUGUSTINE FL  2200   78 80  180/  2/  3 1016.6R


$$




USA.gov is the U.S. government's official web portal to all federal, state and local government web resources and services.